Location: Huesca
(42.1318°N, 0.4078°W)
Time: 18:01:25
(UTC+01:00)

Explorer 7 - Pass Details

Date: 19 December 2025
Orbit: 433 x 550 km, 50.2° (Epoch: 17 January)

Event Time Altitude Azimuth Distance (km) Brightness Sun altitude
Rises 18:53:19 0° 293° (WNW) 2,468 10.9 -14.5°
Reaches altitude 10° 18:55:51 10° 310° (NW) 1,576 9.6 -14.9°
Maximum altitude 18:58:37 21° 2° (N) 1,044 8.0 -15.4°
Enters shadow 18:59:19 20° 20° (NNE) 1,081 8.0 -15.5°
